RH
36 36 34 27 24 24 23 22 19 15 12 10 9 6 5 4 5 8 12 12 12 13 15 15 12 26 45 58 64 100 92 98 100 100 100 100 76 77 89 60 31 39 87 100
39 38 36 34 34 30 28 24 20 15 10 10 7 5 3 3 3 3 6 10 10 8 9 14 15 12 21 38 56 64 100 99 100 100 99 87 79 76 71 71 29 34 75 100
42 38 40 42 38 35 32 34 23 15 12 10 6 4 3 2 3 3 2 3 7 8 7 7 12 14 13 16 40 43 77 100 100 100 100 95 92 62 69 79 45 32 52 100
41 40 41 43 44 44 48 36 25 18 11 9 7 4 3 3 2 2 2 2 2 4 7 5 6 9 12 13 14 38 41 74 100 100 100 100 100 82 53 64 62 48 34 86
44 49 45 44 46 52 54 39 32 23 14 13 8 4 5 5 4 2 3 2 2 2 2 6 5 6 8 11 14 14 33 43 62 100 100 100 100 98 66 47 55 55 34 60
53 57 47 46 46 51 56 57 51 38 21 13 11 6 4 3 3 3 2 2 2 2 2 2 4 5 6 8 11 13 15 33 41 69 87 100 100 96 100 59 52 47 39 44
59 57 50 52 56 53 54 56 55 31 21 14 11 9 6 6 4 3 3 2 2 2 2 2 2 3 4 5 8 12 12 16 33 41 49 68 100 100 100 99 55 52 36 39
50 60 58 57 57 59 48 47 54 41 28 28 14 12 9 5 5 3 3 3 2 2 2 2 2 2 2 4 5 9 11 12 17 29 37 41 71 88 94 100 92 54 46 32
39 48 56 56 66 59 58 57 59 58 49 31 22 20 12 8 4 3 3 3 3 2 2 2 2 2 2 2 3 5 9 11 11 16 28 36 40 92 71 69 100 83 57 45
42 43 43 50 60 58 63 66 70 61 54 49 42 35 20 14 9 6 4 3 3 3 2 2 2 2 2 2 2 3 5 9 11 11 15 26 35 49 87 65 82 100 87 64
43 47 44 47 59 57 62 70 70 76 67 55 50 40 32 20 14 8 4 3 3 3 3 2 2 2 2 2 2 2 3 6 8 11 11 13 24 36 53 64 80 84 99 80
52 50 54 44 51 59 57 60 59 66 74 74 66 54 41 30 16 12 8 5 3 3 3 2 2 2 2 2 2 2 2 3 6 8 10 10 11 25 39 44 63 78 59 65
51 53 58 56 46 52 54 51 56 59 65 76 76 69 63 49 49 28 15 9 5 3 3 3 2 2 2 2 2 2 2 2 3 7 9 10 10 12 26 36 40 52 58 36
58 55 53 63 58 49 52 55 56 57 57 65 73 74 76 77 62 36 22 15 9 4 3 3 3 2 2 2 2 2 2 2 2 3 7 9 11 10 12 26 32 36 48 49
96 66 57 55 65 59 58 60 63 60 50 55 64 65 66 70 67 47 29 18 12 7 4 3 3 2 2 2 2 2 2 2 2 2 4 8 10 11 10 14 25 29 30 38
89 92 50 59 55 64 64 60 70 65 55 49 52 63 62 65 68 70 57 36 17 11 6 4 3 3 2 2 2 2 2 2 2 2 2 4 8 11 11 10 18 24 27 33
83 78 59 51 56 53 62 68 65 74 67 55 49 50 57 54 58 69 78 52 27 17 12 6 4 4 3 2 2 2 2 2 2 2 2 2 5 9 11 11 10 21 25 29
80 78 76 58 52 55 51 60 71 78 78 66 58 49 50 50 49 53 58 60 46 27 15 12 7 4 4 3 3 2 2 2 2 2 2 2 2 6 9 11 12 11 22 25
88 65 64 67 53 63 58 50 65 80 75 77 79 64 53 49 47 46 46 55 61 48 28 17 12 8 5 4 3 3 2 2 2 2 2 2 2 3 8 9 11 12 12 21
79 61 51 59 63 55 59 58 60 79 85 80 80 76 68 55 51 50 46 47 54 60 57 36 20 14 9 5 5 4 4 3 3 2 2 2 2 2 3 8 10 11 12 12
90 73 63 60 66 62 66 61 63 72 90 92 84 75 74 63 55 52 53 47 46 53 57 61 45 25 14 12 6 5 4 6 4 3 3 3 3 2 2 4 9 10 11 12
89 99 76 70 67 61 71 71 76 80 89 98 100 87 71 71 63 58 51 55 48 44 48 52 60 56 32 16 14 7 6 5 6 5 3 3 3 3 3 3 4 9 10 11
83 94 100 80 91 65 70 79 77 95 93 99 92 93 80 66 70 61 60 53 56 48 44 44 46 57 55 42 19 15 11 6 6 6 6 5 3 3 3 3 3 5 10 11
77 83 100 100 90 83 74 83 83 86 87 100 86 81 76 76 70 71 62 63 58 57 52 47 45 47 59 60 53 23 14 14 7 6 6 7 6 4 4 4 3 3 6 10
93 78 100 100 97 94 93 90 91 88 84 99 88 78 83 81 76 66 72 63 62 63 61 56 49 48 47 54 61 60 34 16 14 11 6 6 7 7 6 4 4 4 3 5
100 99 100 100 99 94 100 90 83 84 83 97 93 85 85 84 82 84 78 72 64 63 60 56 56 50 49 47 50 52 58 46 20 14 13 7 6 7 8 7 6 5 4 4
Wind_Speed
43 42 42 46 48 52 54 57 58 58 57 49 51 60 62 48 54 64 79 91 97 98 102 106 106 116 114 110 107 100 97 93 95 93 96 92 90 83 78 78 72 78 81 71
46 48 50 53 57 57 59 61 65 64 58 53 50 44 48 51 50 53 65 86 96 98 96 100 105 110 120 115 113 111 106 101 96 100 99 99 91 88 82 80 74 74 84 77
51 50 52 57 59 62 64 70 70 66 62 50 48 45 40 38 44 49 54 61 81 94 94 96 103 108 112 119 122 119 118 111 105 98 100 103 96 92 90 86 84 76 88 84
50 53 57 59 66 68 70 71 72 68 61 55 48 41 36 33 35 43 47 53 59 73 88 88 94 104 108 114 122 127 124 119 114 108 106 104 101 95 93 92 89 85 88 93
54 57 61 62 68 72 74 75 74 75 71 64 53 43 30 31 33 34 40 46 51 56 64 82 85 91 102 109 118 125 131 128 123 118 113 110 106 100 95 91 91 89 90 95
55 60 63 68 73 74 78 79 79 75 73 67 59 50 44 36 29 28 33 35 42 45 54 65 76 85 91 103 112 120 130 135 130 129 121 117 117 105 100 97 93 93 90 95
58 62 64 69 73 74 77 79 81 79 78 75 66 60 54 45 35 27 27 29 31 37 45 55 64 74 85 91 104 116 124 134 137 134 131 123 122 118 110 103 99 96 92 94
58 63 66 69 70 77 83 88 93 94 89 86 80 73 61 50 43 34 23 24 27 28 34 43 54 65 76 83 92 108 119 125 138 141 137 132 126 125 119 112 105 106 101 94
58 61 62 65 73 77 84 91 95 97 96 93 90 87 73 63 49 39 30 22 23 24 26 33 41 55 66 74 83 95 113 121 128 142 143 137 131 128 126 120 115 111 110 105
58 62 64 68 73 76 84 91 94 96 98 98 97 94 88 79 68 57 45 32 21 21 24 23 32 42 54 64 73 82 97 114 123 132 142 145 138 133 130 126 123 118 115 109
60 63 69 71 74 78 84 90 93 101 105 105 100 96 93 87 76 63 52 40 30 23 21 23 22 30 40 53 63 74 81 98 114 125 133 141 145 139 135 132 129 125 121 114
61 65 68 70 73 79 84 87 92 97 103 107 107 102 99 94 86 79 68 57 45 30 24 21 22 22 29 38 52 64 71 80 101 115 126 133 139 145 141 137 133 129 127 125
62 65 69 71 72 76 80 85 91 97 101 105 108 110 109 109 111 100 83 69 56 42 29 22 20 19 22 30 39 51 63 72 82 102 116 127 132 141 146 142 140 135 129 126
63 65 68 71 71 72 76 83 89 93 96 100 104 106 108 108 102 95 90 78 65 51 38 28 21 17 17 22 28 38 52 62 70 82 103 117 128 132 143 146 142 141 137 132
60 64 66 70 72 73 75 80 86 90 93 95 97 101 105 105 103 97 91 86 72 61 48 36 27 18 14 15 21 29 39 53 61 69 83 103 118 127 131 145 145 143 141 138
56 61 63 65 67 71 75 77 80 84 89 94 97 101 103 105 107 107 103 93 83 69 59 46 35 23 15 11 14 21 30 40 52 61 68 83 104 120 127 133 146 142 142 140
55 58 59 63 66 65 67 74 76 82 86 89 93 97 99 100 103 106 106 98 89 83 68 57 45 35 22 13 9 13 21 31 42 52 62 71 86 106 121 127 134 146 143 144
55 58 58 63 62 65 66 68 74 80 82 85 87 92 95 96 99 101 102 103 96 89 80 68 58 45 34 22 13 9 13 21 32 43 54 63 72 88 108 121 127 138 147 147
52 56 59 61 64 64 64 67 72 75 79 84 88 90 94 95 97 99 100 103 105 97 89 80 70 58 45 34 23 12 10 14 23 35 45 55 63 75 93 110 121 128 140 148
47 54 57 62 66 65 66 66 69 73 77 80 84 87 90 95 96 97 98 99 102 105 102 92 80 69 57 45 34 24 13 10 16 24 35 46 55 63 77 96 112 121 129 139
48 53 56 60 62 64 66 67 68 72 78 82 84 87 90 91 93 96 96 97 99 102 102 101 92 81 67 56 45 34 24 13 11 18 25 34 46 56 65 80 100 115 122 130
51 54 56 58 60 63 66 68 70 71 74 79 81 83 85 88 91 93 94 95 95 97 98 99 98 95 82 68 57 45 34 25 16 11 17 26 34 46 56 66 84 103 116 123
50 53 58 61 62 63 64 67 69 72 72 76 80 80 84 87 90 92 93 93 94 94 95 95 95 95 93 83 68 56 45 33 25 17 13 16 24 34 45 56 70 87 105 118
48 49 51 56 60 64 65 65 68 70 71 72 76 79 82 86 89 91 92 93 92 92 93 94 93 93 94 91 83 68 54 44 34 24 19 15 15 22 33 43 53 70 89 107
51 50 51 53 58 61 64 65 66 68 70 71 75 79 83 86 89 92 92 92 92 90 90 92 93 92 91 91 89 82 70 54 43 35 25 20 17 18 22 30 42 51 67 88
51 52 53 53 57 59 60 63 63 66 69 71 73 77 82 85 89 92 92 93 92 91 91 91 92 93 91 89 88 85 79 70 56 43 31 25 20 19 20 24 29 40 51 62
Wind_Direction
354 349 342 336 338 338 337 333 330 325 318 308 294 291 291 273 249 241 243 246 245 240 238 235 230 227 224 222 223 219 217 215 218 220 225 227 224 220 223 223 216 212 207 206
1 359 352 352 350 347 346 343 345 339 332 327 315 303 292 286 273 257 243 240 241 241 237 232 231 228 225 221 221 222 218 216 218 215 222 225 224 219 219 220 216 214 208 206
7 4 4 4 358 358 354 356 350 351 342 339 328 323 308 289 277 267 257 244 243 244 239 233 227 227 225 223 219 220 220 217 215 216 219 225 224 222 219 221 221 220 212 206
12 13 12 11 10 7 6 0 358 355 352 351 344 332 319 301 284 272 262 253 244 240 243 241 232 226 223 222 221 218 220 220 214 216 215 222 222 222 222 222 224 221 214 210
16 17 18 16 15 14 13 7 7 4 4 358 355 345 329 318 301 283 270 263 251 245 237 241 237 232 225 220 221 218 217 219 218 216 217 215 220 221 221 221 222 218 214 211
24 18 19 20 19 21 18 16 14 13 12 7 4 2 354 347 330 304 288 269 261 246 239 234 236 235 230 223 218 218 217 217 217 218 218 217 219 218 218 220 218 214 213 211
19 21 21 22 22 19 19 19 18 14 15 15 11 11 8 357 347 329 304 286 270 256 242 234 230 232 233 226 221 217 216 216 217 217 220 219 219 217 217 216 217 215 213 212
21 18 20 19 21 20 21 21 21 17 17 19 18 15 12 10 360 350 331 299 283 264 252 242 234 230 231 231 222 220 216 215 215 217 218 219 218 217 216 216 218 217 214 215
19 22 19 20 20 20 21 22 23 24 20 19 20 20 15 13 11 6 358 335 300 284 259 249 240 235 231 231 228 220 218 216 214 216 217 218 217 216 216 216 215 219 218 217
17 17 19 19 18 20 22 23 22 23 25 24 23 21 20 17 14 14 7 357 333 301 288 261 248 238 234 231 231 227 220 217 216 215 216 217 216 216 216 217 216 218 220 216
19 17 16 18 18 18 21 22 22 23 23 24 23 24 23 21 19 15 14 10 359 336 307 288 262 248 237 234 228 230 226 220 218 216 215 217 216 216 215 216 217 218 218 216
16 16 17 17 16 18 20 19 21 24 24 23 23 22 23 23 22 20 17 12 8 358 332 308 288 262 247 237 232 228 227 224 219 219 216 216 216 215 215 214 216 218 219 219
17 14 13 15 16 17 17 18 20 21 23 23 22 23 24 22 22 19 17 15 10 4 355 331 308 287 255 243 235 231 229 226 222 219 219 217 217 215 215 215 215 217 218 218
14 14 12 11 13 15 16 17 18 20 22 23 23 25 24 25 23 20 20 17 14 8 4 355 336 313 277 250 240 233 229 229 225 221 220 218 218 217 216 215 215 216 217 219
10 10 11 9 9 12 14 15 17 18 19 22 23 23 24 24 23 21 20 20 17 15 10 8 358 340 308 272 244 234 228 227 228 225 221 219 218 220 218 216 216 216 217 218
4 4 8 8 11 8 10 14 17 16 16 19 22 22 22 23 23 24 23 20 21 18 17 12 13 3 344 307 263 241 230 227 226 227 224 221 219 219 220 218 216 215 216 217
359 360 4 7 6 10 9 12 13 14 15 17 19 20 20 20 22 24 23 22 21 23 19 18 14 16 8 349 302 254 238 230 225 226 226 223 219 219 220 220 218 216 216 216
356 358 1 3 4 4 8 9 11 12 13 15 16 16 18 19 20 21 24 24 23 21 23 21 20 15 15 12 352 305 251 237 231 226 226 225 222 219 219 220 220 219 217 217
354 357 1 1 3 4 4 8 11 11 11 11 12 13 14 16 17 20 21 25 25 23 21 23 21 20 15 12 11 353 299 253 236 230 228 226 224 219 218 219 220 220 220 218
354 354 358 1 360 2 4 5 8 10 9 9 9 10 11 13 15 17 19 21 23 24 25 21 23 21 18 15 11 8 352 296 254 238 234 230 228 225 219 218 220 221 221 221
350 351 353 360 358 359 360 1 5 6 6 7 8 8 10 11 12 14 16 17 20 22 24 24 23 21 22 18 14 8 6 349 294 255 239 235 232 228 225 220 219 221 222 222
344 347 350 353 357 357 358 359 1 3 4 3 5 5 6 7 8 10 12 13 15 17 19 22 24 23 20 21 17 14 6 360 344 304 264 244 237 235 228 225 222 221 222 223
344 344 346 348 351 355 356 357 358 359 359 360 0 1 1 4 5 6 8 10 12 13 15 17 20 23 22 19 18 18 10 4 354 340 308 273 252 239 235 231 226 224 222 224
342 345 345 344 346 348 354 354 356 357 358 357 356 357 358 360 1 3 4 5 8 9 10 12 15 17 21 21 19 14 16 10 1 350 334 304 283 262 245 236 235 228 226 225
334 340 343 341 343 344 346 351 351 353 354 353 352 353 355 357 359 360 1 2 3 5 7 8 9 13 14 17 19 19 12 10 10 359 345 327 302 282 264 252 240 236 233 229
331 335 339 339 338 341 341 344 347 348 350 350 348 349 350 353 354 356 357 358 359 360 1 3 5 6 9 11 14 16 18 12 5 5 357 342 320 300 281 266 255 246 240 237